Location: Unspecified
(41.1637°N, 24.2901°E)
Time: 02:19:57
(UTC+01:00)

ISS - Visible Passes

Search period start: 15 December 2025 00:00
Search period end: 25 December 2025 00:00
Orbit: 416 x 420 km, 51.6° (Epoch: 14 December)

Date Brightness Start Highest point End Pass type
(mag) Time Alt. Az. Time Alt. Az. Time Alt. Az.
15 Dec -0.9 04:05:47 16° SE 04:05:47 16° SE 04:07:55 10° E visible
15 Dec -3.7 05:38:51 10° WSW 05:42:11 59° NNW 05:45:32 10° NE visible
16 Dec -3.8 04:53:43 65° SW 04:54:09 82° SE 04:57:32 10° NE visible
17 Dec -1.0 04:08:20 18° ENE 04:08:20 18° ENE 04:09:25 10° ENE visible
17 Dec -2.6 05:41:17 18° WNW 05:43:02 27° NNW 05:46:00 10° NE visible
18 Dec -2.7 04:55:38 33° N 04:55:38 33° N 04:58:03 10° NE visible
19 Dec -0.7 04:09:48 12° NE 04:09:48 12° NE 04:10:03 10° NE visible
19 Dec -1.9 05:42:44 15° NW 05:43:59 18° NNW 05:46:22 10° NNE visible
20 Dec -1.7 04:56:45 18° N 04:56:45 18° N 04:58:20 10° NNE visible
21 Dec -1.6 05:43:36 12° NNW 05:44:57 14° N 05:46:52 10° NNE visible
22 Dec -1.4 04:57:26 14° N 04:57:26 14° N 04:58:38 10° NNE visible
23 Dec -1.5 05:44:07 11° NNW 05:45:52 14° N 05:47:49 10° NE visible
24 Dec -1.3 04:57:50 14° N 04:57:50 14° N 04:59:13 10° NE visible
